Weather Roundup
Issued by NWS

Home | Current Version | Previous Version | Graphics & Text | Print | Product List | Glossary Off
Versions: 1 2 3 4 5 6 7 8 9 10 11 12 13 14 15 16 17 18 19 20 21 22 23 24 25 26 27 28 29 30 31 32 33 34 35 36 37 38 39 40 41 42 43 44 45 46 47 48 49 50

593
NZUS93 KARX 291410
HRRWXR

CURRENT HOURLY OBSERVATIONS ACROSS
MUCH OF THE UPPER MISSISSIPPI VALLEY
NATIONAL WEATHER SERVICE LA CROSSE WI
900 AM CDT WED MAR 29 2017


...SOUTHEAST MINNESOTA...


CITY           SKY/WX    TMP DP  RH WIND       PRES   REMARKS
ROCHESTER      CLOUDY    41  35  79 SE8       30.22R
ROCHESTER/MAYO FAIR      42  33  70 CALM      30.23R
WINONA         CLOUDY    41  34  75 SE3       30.26R
AUSTIN         CLOUDY    43  36  75 SE8       30.21R
ALBERT LEA     CLOUDY    43  36  75 SE9       30.20S
DODGE CENTER   CLOUDY    41  36  81 E7        30.21S
PRESTON        CLOUDY    40  34  80 E6        30.22S
OWATONNA       CLOUDY    43  36  75 E5        30.22R
FARIBAULT      CLOUDY    45  36  70 E5        30.22S
$$

...ELSEWHERE IN MINNESOTA...


CITY           SKY/WX    TMP DP  RH WIND       PRES   REMARKS
MINNEAPOLIS    CLOUDY    46  33  60 SE5       30.24R
INTNL FALLS    CLOUDY    34  25  69 E9        30.27F WCI  27
DULUTH         PTSUNNY   34  29  82 E15       30.29S WCI  24
RED WING       CLOUDY    43  36  75 SE3       30.24R
REDWOOD FALLS  CLOUDY    44  34  67 E5        30.19R
MANKATO        CLOUDY    44  38  79 SE6       30.21R
WORTHINGTON    CLOUDY    41  39  93 E7        30.18R
FAIRMONT       CLOUDY    43  38  82 E7        30.19R
$$

...SOUTHWEST WISCONSIN...


CITY           SKY/WX    TMP DP  RH WIND       PRES   REMARKS
LA CROSSE      CLOUDY    44  34  67 E6        30.26R
PRAIRIE DU CHI CLOUDY    41  35  81 E6        30.24R
BOSCOBEL       CLOUDY    41  37  86 NE5       30.26R
LONE ROCK      CLOUDY    39  36  89 SE5       30.27R FOG
PLATTEVILLE    CLOUDY    40  39  95 E13       30.23R WCI  33
FORT MC COY    CLOUDY    39  33  79 E7        30.27S WCI  34
CAMP DOUGLAS   CLOUDY    37  34  87 E5        30.26F WCI  34
MAUSTON-NEW LI CLOUDY    37  33  83 CALM      30.26S
VIROQUA        FAIR      39  35  85 CALM      30.24R
WIS DELLS      CLOUDY    36  33  88 E8        30.26S WCI  30
$$

...ELSEWHERE IN WISCONSIN...


CITY           SKY/WX    TMP DP  RH WIND       PRES   REMARKS
MILWAUKEE      CLOUDY    39  37  92 NE5       30.28R
MADISON        CLOUDY    37  35  92 E6        30.25F WCI  32
GREEN BAY      MOSUNNY   37  35  92 NE12      30.33R WCI  29
EAU CLAIRE     PTSUNNY   42  29  59 SE8       30.26R
BLACK RVR FLS  FAIR      37  34  86 CALM      30.27S
MEDFORD        CLOUDY    37  27  66 E8        30.27R WCI  31
WAUSAU         CLOUDY    37  28  70 E8        30.28S WCI  31
WIS RAPIDS     CLOUDY    41  30  65 E12       30.29S
MARSHFIELD     CLOUDY    37  28  70 E10       30.26S WCI  30
RICE LAKE      CLOUDY    41  31  67 CALM      30.28S
$$

...NORTHEAST IOWA...


CITY           SKY/WX    TMP DP  RH WIND       PRES   REMARKS
WATERLOO       CLOUDY    40  37  89 E13       30.16F WCI  32
DUBUQUE        CLOUDY    40  36  86 E9        30.22R WCI  34
DECORAH        CLOUDY    41  37  87 E9        30.21R
MASON CITY     LGT RAIN  41  35  79 E8        30.19S
CHARLES CITY   CLOUDY    41  39  93 E9        30.19F
OELWEIN        CLOUDY    39  39 100 E9        30.18F WCI  33
$$

...ELSEWHERE IN IOWA...


CITY           SKY/WX    TMP DP  RH WIND       PRES   REMARKS
DES MOINES     LGT RAIN  43  40  89 E15       30.06S FOG
IOWA CITY      CLOUDY    44  41  89 E9        30.17F FOG
FORT DODGE     CLOUDY    43  37  81 NE14      30.12F
MARSHALLTOWN   LGT RAIN  40  39  97 E18       30.11F FOG     WCI  31
CEDAR RAPIDS   CLOUDY    41  40  96 E14       30.14F FOG
$$

...NORTHERN ILLINOIS...


CITY           SKY/WX    TMP DP  RH WIND       PRES   REMARKS
CHICAGO-OHARE  CLOUDY    40  35  83 NE10      30.23F WCI  33
CHICAGO-MIDWAY CLOUDY    42  36  79 NE10G17   30.24F
MOLINE         CLOUDY    43  39  86 E10       30.21R FOG
ROCKFORD       CLOUDY    40  35  83 E8        30.25R WCI  34
PEORIA         CLOUDY    46  43  89 E12       30.15R
$$

NOTE: "FAIR" INDICATES FEW OR NO CLOUDS BELOW 12,000 FEET WITH NO
SIGNIFICANT WEATHER AND/OR OBSTRUCTIONS TO VISIBILITY. WIND
SPEEDS ARE IN MILES-PER-HOUR.




USA.gov is the U.S. government's official web portal to all federal, state and local government web resources and services.